TimeEST,TemperatureF,Dew PointF,Humidity,Sea Level PressureIn,VisibilityMPH,Wind Direction,Wind SpeedMPH,Gust SpeedMPH,PrecipitationIn,Events,Conditions,WindDirDegrees,DateUTC
12:53 AM,64.9,60.1,84,30.17,10.0,ENE,9.2,-,N/A,,Clear,60,2014-01-01 05:53:00
1:53 AM,64.0,60.1,87,30.17,10.0,ENE,8.1,-,N/A,,Clear,60,2014-01-01 06:53:00
2:53 AM,64.0,60.1,87,30.15,10.0,NE,11.5,-,N/A,,Partly Cloudy,40,2014-01-01 07:53:00
3:53 AM,64.0,60.1,87,30.15,10.0,NE,9.2,-,N/A,,Overcast,50,2014-01-01 08:53:00
4:53 AM,64.9,60.1,84,30.14,10.0,ENE,9.2,-,N/A,,Overcast,60,2014-01-01 09:53:00
5:53 AM,64.9,61.0,87,30.15,10.0,NE,6.9,-,N/A,,Overcast,50,2014-01-01 10:53:00
6:53 AM,64.9,61.0,87,30.16,10.0,NE,6.9,-,N/A,,Overcast,50,2014-01-01 11:53:00
7:53 AM,66.0,62.1,87,30.17,10.0,ENE,9.2,-,N/A,,Clear,60,2014-01-01 12:53:00
8:53 AM,70.0,64.0,81,30.18,10.0,ENE,6.9,-,N/A,,Partly Cloudy,70,2014-01-01 13:53:00
9:53 AM,73.9,66.9,79,30.17,10.0,East,10.4,-,N/A,,Clear,90,2014-01-01 14:53:00
10:53 AM,80.1,69.1,69,30.15,10.0,East,11.5,-,N/A,,Clear,100,2014-01-01 15:53:00
11:53 AM,82.9,69.1,63,30.13,10.0,SSE,12.7,19.6,N/A,,Partly Cloudy,150,2014-01-01 16:53:00
12:53 PM,84.0,68.0,58,30.10,10.0,SE,13.8,-,N/A,,Scattered Clouds,130,2014-01-01 17:53:00
1:53 PM,84.0,68.0,58,30.06,10.0,South,11.5,17.3,N/A,,Scattered Clouds,170,2014-01-01 18:53:00
2:53 PM,84.0,68.0,58,30.05,10.0,South,11.5,-,N/A,,Scattered Clouds,170,2014-01-01 19:53:00
3:53 PM,82.9,69.1,63,30.05,10.0,SE,10.4,-,N/A,,Scattered Clouds,140,2014-01-01 20:53:00
4:53 PM,81.0,70.0,69,30.05,10.0,NNE,5.8,-,N/A,,Mostly Cloudy,30,2014-01-01 21:53:00
5:53 PM,77.0,70.0,79,30.05,10.0,Calm,Calm,-,N/A,,Scattered Clouds,0,2014-01-01 22:53:00
6:53 PM,75.0,70.0,84,30.06,10.0,Calm,Calm,-,N/A,,Partly Cloudy,0,2014-01-01 23:53:00
7:53 PM,73.0,70.0,90,30.07,10.0,Calm,Calm,-,N/A,,Clear,0,2014-01-02 00:53:00
8:28 PM,73.4,71.6,94,30.07,10.0,ENE,3.5,-,N/A,,Mostly Cloudy,60,2014-01-02 01:28:00
8:53 PM,73.0,71.1,93,30.07,10.0,NE,4.6,-,N/A,,Mostly Cloudy,40,2014-01-02 01:53:00
9:38 PM,71.6,69.8,94,30.07,10.0,ENE,5.8,-,N/A,,Scattered Clouds,60,2014-01-02 02:38:00
9:53 PM,71.1,70.0,96,30.07,10.0,ENE,4.6,-,N/A,,Partly Cloudy,60,2014-01-02 02:53:00
10:53 PM,71.1,70.0,96,30.06,8.0,NE,4.6,-,N/A,,Clear,50,2014-01-02 03:53:00
11:53 PM,70.0,69.1,97,30.04,8.0,ENE,4.6,-,N/A,,Clear,60,2014-01-02 04:53:00